AirNav   Everest Fuels
 
 1248 users online  

FA35 Lindbergh's Landing Airport
Miami, Florida, USA

GOING TO MIAMI?


FAA INFORMATION EFFECTIVE 16 JUNE 2022

Location

FAA Identifier: FA35
Lat/Long: 25-37-10.3000N 080-29-19.2000W
25-37.171667N 080-29.320000W
25.6195278,-80.4886667
(estimated)
Elevation: 9 ft. / 3 m (estimated)
Variation: 04W (1995)
From city: 20 miles SW of MIAMI, FL
Time zone: UTC -4 (UTC -5 during Standard Time)
Zip code: 33187

Airport Operations

Airport use: Private use. Permission required prior to landing
Activation date: 01/1999
Control tower: no
ARTCC: MIAMI CENTER
FSS: MIAMI FLIGHT SERVICE STATION
Attendance: UNATNDD
Wind indicator: yes
Segmented circle: no

Airport Communications

WX ASOS at TMB (3 nm NE): 124.0 (305-235-1332)
WX AWOS-3 at X51 (8 nm SW): 118.375 (305-247-2791)
WX ASOS at MIA (15 nm NE): 119.15 (305-870-0235)

Airport Services

Runway Information

Runway 9/27

Dimensions: 4000 x 70 ft. / 1219 x 21 m
Surface: turf
Runway edge markings: RY 09/27 HAS WHITE MARKERS AT 50 FT INTERVALS ALONG EDGES & AT THLDS.
RUNWAY 9  RUNWAY 27
Traffic pattern: rightleft
Obstructions: 6 ft. fence, 300 ft. from runway35 ft. pline, 900 ft. from runway

Airport Ownership and Management from official FAA records

Ownership: Privately-owned
Owner: GROVELAND AIRSTRIP ASSN -MIAMI MGMT
14275 SW 142 AVE
MIAMI, FL 33186
Phone 305-378-0130
Manager: RAMON L. TORRES
17705 SW 158 ST
MIAMI, FL 33187
Phone (305) 433-0105

Airport Operational Statistics

Aircraft based on the field: 16
Single engine airplanes: 12
Multi engine airplanes: 4
    

Additional Remarks

PILOT BRIEFING & PPR.
RADIO CTC WITH TMB ATCT (118.9) FOR TFC ADVISORIES & TMB ATIS (124.0) FOR RY IN USE & ALTIMETER SETTING.
FOR CD CTC MIAMI APCH AT 305-869-5432.

Instrument Procedures

There are no published instrument procedures at FA35.

Some nearby airports with instrument procedures:

KTMB - Miami Executive Airport (3 nm NE)
X51 - Miami Homestead General Aviation Airport (8 nm SW)
KHST - Homestead Air Reserve Base (10 nm SE)
KMIA - Miami International Airport (15 nm NE)
KOPF - Miami-Opa Locka Executive Airport (21 nm NE)
 
Loc | Ops | Rwys | IFR | FBO | Links
Com | Nav | Svcs | Stats | Notes


 
Area around FA35 (Lindbergh's Landing Airport)
 
Road maps at: MapQuest Bing Google
 
Aerial photo
No photo
 
Sectional chart

 
Airport distance calculator
Flying to Lindbergh's Landing Airport? Find the distance to fly.

From to FA35

Sunrise and sunset
Times for 27-Jun-2022
 Local
(UTC-4)
 Zulu
(UTC)
Morning civil twilight06:0810:08
Sunrise06:3410:34
Sunset20:1600:16
Evening civil twilight20:4200:42

Current date and time
Zulu (UTC)  28-Jun-2022 00:18:09
Local (UTC-4)  27-Jun-2022 20:18:09
 
METAR
KTMB 
4nm NE 
272353Z 15007KT 10SM CLR 28/23 A3000 RMK AO2 SLP157 60004 T02830233 10317 20278 53005
KHST 
11nm SE 
272356Z AUTO 12005KT 10SM CLR 28/23 A2998 RMK AO2 SLP156 T02830227 10321 20283 53006
KMIA 
14nm NE 
272353Z 13009KT 10SM FEW025 SCT250 29/22 A3000 RMK AO2 SLP159 T02890222 10322 20289 53005 $
TAF
KTMB 
4nm NE 
272056Z 2721/2818 12011KT P6SM SCT030 BKN060 FM280100 VRB04KT P6SM SCT030 BKN050 FM281500 13010KT P6SM VCSH SCT030 BKN050 FM281700 13010KT P6SM VCTS SCT025CB BKN050
KHST 
11nm SE 
271900Z 2719/2901 12008KT 9999 VCTS SCT030 SCT045CB BKN100 QNH2996INS TEMPO 2719/2723 VRB12G22KT 4800 -TSRA BKN020CB BKN040 BECMG 2723/2724 VRB05KT 9999 NSW SCT025 SCT045 QNH2998INS BECMG 2813/2814 12008KT 9999 SCT035 SCT050 BKN100 QNH3002INS TEMPO 2819/2823 VRB12G20KT 4800 -TSRA BKN022CB BKN040 BECMG 2823/2824 VRB04KT 9999 SCT025 SCT040 QNH3003INS TX32/2719Z TN24/2811Z
KMIA 
14nm NE 
272056Z 2721/2824 12011KT P6SM SCT030 BKN060 FM280100 VRB04KT P6SM SCT030 BKN050 FM281500 13010KT P6SM VCSH SCT030 BKN050 FM281700 13010KT P6SM VCTS SCT025CB BKN050
NOTAMs
Click for the latest NOTAMs
NOTAMs are issued by the DoD/FAA and will open in a separate window not controlled by AirNav.

 

 
 

Would you like to see your business listed on this page?

 If your business provides an interesting product or service to pilots, flight crews, aircraft, or users of the Lindbergh's Landing Airport, you should consider listing it here.  To start the listing process, click on the button below
 
Add a business
 

Other Pages about Lindbergh's Landing Airport

Update a link
 
Copyright © AirNav, LLC. All rights reserved. Privacy Policy  Contact